Time,TemperatureF,DewpointF,PressureIn,WindDirection,WindDirectionDegrees,WindSpeedMPH,WindSpeedGustMPH,Humidity,HourlyPrecipIn,Conditions,Clouds,dailyrainin,SolarRadiationWatts/m^2,SoftwareType,DateUTC
2013-04-10 00:02:00,37.0,6.0,-100.00,SE,126,2.0,16.0,27,0.00,,,0.00,0.000000,,2013-04-10 07:02:00,
2013-04-10 00:12:00,37.0,6.0,-100.00,SE,126,2.0,16.0,27,0.00,,,0.00,0.000000,,2013-04-10 07:12:00,
2013-04-10 00:22:00,37.0,6.0,-100.00,SE,126,2.0,16.0,27,0.00,,,0.00,0.000000,,2013-04-10 07:22:00,
2013-04-10 00:32:00,37.0,6.0,-100.00,SE,126,2.0,16.0,27,0.00,,,0.00,0.000000,,2013-04-10 07:32:00,
2013-04-10 01:02:00,37.0,8.0,-100.00,East,82,5.0,17.0,30,0.00,,,0.00,0.000000,,2013-04-10 08:02:00,
2013-04-10 01:12:00,37.0,8.0,-100.00,East,82,5.0,17.0,30,0.00,,,0.00,0.000000,,2013-04-10 08:12:00,
2013-04-10 01:32:00,37.0,8.0,-100.00,East,82,5.0,17.0,30,0.00,,,0.00,0.000000,,2013-04-10 08:32:00,
2013-04-10 02:02:00,36.0,8.0,-100.00,North,350,1.0,22.0,31,0.00,,,0.00,0.000000,,2013-04-10 09:02:00,
2013-04-10 02:12:00,36.0,8.0,-100.00,North,350,1.0,22.0,31,0.00,,,0.00,0.000000,,2013-04-10 09:12:00,
2013-04-10 02:22:00,36.0,8.0,-100.00,North,350,1.0,22.0,31,0.00,,,0.00,0.000000,,2013-04-10 09:22:00,
2013-04-10 02:32:00,36.0,8.0,-100.00,North,350,1.0,22.0,31,0.00,,,0.00,0.000000,,2013-04-10 09:32:00,
2013-04-10 03:02:00,38.0,10.0,-100.00,NNE,26,5.0,20.0,31,0.00,,,0.00,0.000000,,2013-04-10 10:02:00,
2013-04-10 03:12:00,38.0,10.0,-100.00,NNE,26,5.0,20.0,31,0.00,,,0.00,0.000000,,2013-04-10 10:12:00,
2013-04-10 03:23:00,38.0,10.0,-100.00,NNE,26,5.0,20.0,31,0.00,,,0.00,0.000000,,2013-04-10 10:23:00,
2013-04-10 03:33:00,38.0,10.0,-100.00,NNE,26,5.0,20.0,31,0.00,,,0.00,0.000000,,2013-04-10 10:33:00,
2013-04-10 04:02:00,38.0,10.0,-100.00,NE,42,6.0,22.0,31,0.00,,,0.00,0.000000,,2013-04-10 11:02:00,
2013-04-10 04:12:00,38.0,10.0,-100.00,NE,42,6.0,22.0,31,0.00,,,0.00,0.000000,,2013-04-10 11:12:00,
2013-04-10 04:22:00,38.0,10.0,-100.00,NE,42,6.0,22.0,31,0.00,,,0.00,0.000000,,2013-04-10 11:22:00,
2013-04-10 04:32:00,38.0,10.0,-100.00,NE,42,6.0,22.0,31,0.00,,,0.00,0.000000,,2013-04-10 11:32:00,
2013-04-10 07:02:00,36.0,6.0,-100.00,SE,126,8.0,24.0,28,-99.99,,,0.00,1.000000,,2013-04-10 14:02:00,
2013-04-10 07:12:00,36.0,6.0,-100.00,SE,126,8.0,24.0,28,-99.99,,,0.00,1.000000,,2013-04-10 14:12:00,
2013-04-10 07:22:00,36.0,6.0,-100.00,SE,126,8.0,24.0,28,-99.99,,,0.00,1.000000,,2013-04-10 14:22:00,
2013-04-10 07:32:00,36.0,6.0,-100.00,SE,126,8.0,24.0,28,-99.99,,,0.00,1.000000,,2013-04-10 14:32:00,
2013-04-10 08:02:00,38.0,6.0,-100.00,North,7,5.0,27.0,26,0.00,,,0.00,18.000000,,2013-04-10 15:02:00,
2013-04-10 08:12:00,38.0,6.0,-100.00,North,7,5.0,27.0,26,0.00,,,0.00,18.000000,,2013-04-10 15:12:00,
2013-04-10 08:22:00,38.0,6.0,-100.00,North,7,5.0,27.0,26,0.00,,,0.00,18.000000,,2013-04-10 15:22:00,
2013-04-10 08:32:00,38.0,6.0,-100.00,North,7,5.0,27.0,26,0.00,,,0.00,18.000000,,2013-04-10 15:32:00,
2013-04-10 09:02:00,43.0,6.0,-100.00,NNE,21,5.0,28.0,21,0.00,,,0.00,273.000000,,2013-04-10 16:02:00,
2013-04-10 09:12:00,43.0,6.0,-100.00,NNE,21,5.0,28.0,21,0.00,,,0.00,273.000000,,2013-04-10 16:12:00,
2013-04-10 09:23:00,43.0,6.0,-100.00,NNE,21,5.0,28.0,21,0.00,,,0.00,273.000000,,2013-04-10 16:23:00,
2013-04-10 09:32:00,43.0,6.0,-100.00,NNE,21,5.0,28.0,21,0.00,,,0.00,273.000000,,2013-04-10 16:32:00,
2013-04-10 10:02:00,44.0,3.0,-100.00,NW,308,7.0,29.0,18,0.00,,,0.00,651.000000,,2013-04-10 17:02:00,
2013-04-10 10:12:00,44.0,3.0,-100.00,NW,308,7.0,29.0,18,0.00,,,0.00,651.000000,,2013-04-10 17:12:00,
2013-04-10 10:22:00,44.0,3.0,-100.00,NW,308,7.0,29.0,18,0.00,,,0.00,651.000000,,2013-04-10 17:22:00,
2013-04-10 10:32:00,44.0,3.0,-100.00,NW,308,7.0,29.0,18,0.00,,,0.00,651.000000,,2013-04-10 17:32:00,
2013-04-10 11:02:00,47.0,0.0,-100.00,West,261,5.0,30.0,14,0.00,,,0.00,877.000000,,2013-04-10 18:02:00,
2013-04-10 11:12:00,47.0,0.0,-100.00,West,261,5.0,30.0,14,0.00,,,0.00,877.000000,,2013-04-10 18:12:00,
2013-04-10 11:22:00,47.0,0.0,-100.00,West,261,5.0,30.0,14,0.00,,,0.00,877.000000,,2013-04-10 18:22:00,
2013-04-10 11:32:00,47.0,0.0,-100.00,West,261,5.0,30.0,14,0.00,,,0.00,877.000000,,2013-04-10 18:32:00,
2013-04-10 12:03:00,51.0,-2.0,-100.00,North,6,5.0,18.0,11,0.00,,,0.00,1050.000000,,2013-04-10 19:03:00,
2013-04-10 12:12:00,51.0,-2.0,-100.00,North,6,5.0,18.0,11,0.00,,,0.00,1050.000000,,2013-04-10 19:12:00,
2013-04-10 12:22:00,51.0,-2.0,-100.00,North,6,5.0,18.0,11,0.00,,,0.00,1050.000000,,2013-04-10 19:22:00,
2013-04-10 12:32:00,51.0,-2.0,-100.00,North,6,5.0,18.0,11,0.00,,,0.00,1050.000000,,2013-04-10 19:32:00,
2013-04-10 13:02:00,52.0,-1.0,-100.00,ENE,78,4.0,18.0,11,0.00,,,0.00,1153.000000,,2013-04-10 20:02:00,
2013-04-10 13:12:00,52.0,-1.0,-100.00,ENE,78,4.0,18.0,11,0.00,,,0.00,1153.000000,,2013-04-10 20:12:00,
2013-04-10 13:22:00,52.0,-1.0,-100.00,ENE,78,4.0,18.0,11,0.00,,,0.00,1153.000000,,2013-04-10 20:22:00,
2013-04-10 13:32:00,52.0,-1.0,-100.00,ENE,78,4.0,18.0,11,0.00,,,0.00,1153.000000,,2013-04-10 20:32:00,
2013-04-10 14:02:00,54.0,-4.0,-100.00,South,178,4.0,17.0,9,0.00,,,0.00,1178.000000,,2013-04-10 21:02:00,
2013-04-10 14:12:00,54.0,-4.0,-100.00,South,178,4.0,17.0,9,0.00,,,0.00,1178.000000,,2013-04-10 21:12:00,
2013-04-10 14:22:00,54.0,-4.0,-100.00,South,178,4.0,17.0,9,0.00,,,0.00,1178.000000,,2013-04-10 21:22:00,
2013-04-10 14:32:00,54.0,-4.0,-100.00,South,178,4.0,17.0,9,0.00,,,0.00,1178.000000,,2013-04-10 21:32:00,
2013-04-10 15:03:00,56.0,0.0,-100.00,South,172,5.0,15.0,10,0.00,,,0.00,1124.000000,,2013-04-10 22:03:00,
2013-04-10 15:12:00,56.0,0.0,-100.00,South,172,5.0,15.0,10,0.00,,,0.00,1124.000000,,2013-04-10 22:12:00,
2013-04-10 15:22:00,56.0,0.0,-100.00,South,172,5.0,15.0,10,0.00,,,0.00,1124.000000,,2013-04-10 22:22:00,
2013-04-10 15:33:00,56.0,0.0,-100.00,South,172,5.0,15.0,10,0.00,,,0.00,1124.000000,,2013-04-10 22:33:00,
2013-04-10 16:02:00,57.0,1.0,-100.00,NE,42,3.0,12.0,10,0.00,,,0.00,998.000000,,2013-04-10 23:02:00,
2013-04-10 16:12:00,57.0,1.0,-100.00,NE,42,3.0,12.0,10,0.00,,,0.00,998.000000,,2013-04-10 23:12:00,
2013-04-10 16:22:00,57.0,1.0,-100.00,NE,42,3.0,12.0,10,0.00,,,0.00,998.000000,,2013-04-10 23:22:00,
2013-04-10 16:32:00,57.0,1.0,-100.00,NE,42,3.0,12.0,10,0.00,,,0.00,998.000000,,2013-04-10 23:32:00,
2013-04-10 17:02:00,60.0,5.0,-100.00,WSW,248,1.0,11.0,11,0.00,,,0.00,806.000000,,2013-04-11 00:02:00,
2013-04-10 17:22:00,60.0,5.0,-100.00,WSW,248,1.0,11.0,11,0.00,,,0.00,806.000000,,2013-04-11 00:22:00,
2013-04-10 17:32:00,60.0,5.0,-100.00,WSW,248,1.0,11.0,11,0.00,,,0.00,806.000000,,2013-04-11 00:32:00,
2013-04-10 18:02:00,55.0,5.0,-100.00,North,353,2.0,9.0,13,0.00,,,0.00,378.000000,,2013-04-11 01:02:00,
2013-04-10 18:12:00,55.0,5.0,-100.00,North,353,2.0,9.0,13,0.00,,,0.00,378.000000,,2013-04-11 01:12:00,
2013-04-10 18:22:00,55.0,5.0,-100.00,North,353,2.0,9.0,13,0.00,,,0.00,378.000000,,2013-04-11 01:22:00,
2013-04-10 18:32:00,55.0,5.0,-100.00,North,353,2.0,9.0,13,0.00,,,0.00,378.000000,,2013-04-11 01:32:00,
2013-04-10 19:02:00,50.0,6.0,-100.00,SE,131,1.0,9.0,16,0.00,,,0.00,178.000000,,2013-04-11 02:02:00,
2013-04-10 19:12:00,50.0,6.0,-100.00,SE,131,1.0,9.0,16,0.00,,,0.00,178.000000,,2013-04-11 02:12:00,
2013-04-10 19:22:00,50.0,6.0,-100.00,SE,131,1.0,9.0,16,0.00,,,0.00,178.000000,,2013-04-11 02:22:00,
2013-04-10 19:32:00,50.0,6.0,-100.00,SE,131,1.0,9.0,16,0.00,,,0.00,178.000000,,2013-04-11 02:32:00,
2013-04-10 20:02:00,41.0,10.0,-100.00,North,10,0.0,5.0,27,0.00,,,0.00,9.000000,,2013-04-11 03:02:00,
2013-04-10 20:22:00,41.0,10.0,-100.00,North,10,0.0,5.0,27,0.00,,,0.00,9.000000,,2013-04-11 03:22:00,
2013-04-10 20:33:00,41.0,10.0,-100.00,North,10,0.0,5.0,27,0.00,,,0.00,9.000000,,2013-04-11 03:33:00,
2013-04-10 21:03:00,38.0,10.0,-100.00,NNE,18,1.0,5.0,31,0.00,,,0.00,0.000000,,2013-04-11 04:03:00,
2013-04-10 21:12:00,38.0,10.0,-100.00,NNE,18,1.0,5.0,31,0.00,,,0.00,0.000000,,2013-04-11 04:12:00,
2013-04-10 21:22:00,38.0,10.0,-100.00,NNE,18,1.0,5.0,31,0.00,,,0.00,0.000000,,2013-04-11 04:22:00,
2013-04-10 21:33:00,38.0,10.0,-100.00,NNE,18,1.0,5.0,31,0.00,,,0.00,0.000000,,2013-04-11 04:33:00,
2013-04-10 22:02:00,35.0,9.0,-100.00,North,10,0.0,6.0,33,0.00,,,0.00,0.000000,,2013-04-11 05:02:00,
2013-04-10 22:12:00,35.0,9.0,-100.00,North,10,0.0,6.0,33,0.00,,,0.00,0.000000,,2013-04-11 05:12:00,
2013-04-10 22:22:00,35.0,9.0,-100.00,North,10,0.0,6.0,33,0.00,,,0.00,0.000000,,2013-04-11 05:22:00,
2013-04-10 22:32:00,35.0,9.0,-100.00,North,10,0.0,6.0,33,0.00,,,0.00,0.000000,,2013-04-11 05:32:00,
2013-04-10 23:02:00,33.0,10.0,-100.00,North,7,4.0,6.0,37,0.00,,,0.00,0.000000,,2013-04-11 06:02:00,
2013-04-10 23:12:00,33.0,10.0,-100.00,North,7,4.0,6.0,37,0.00,,,0.00,0.000000,,2013-04-11 06:12:00,
2013-04-10 23:22:00,33.0,10.0,-100.00,North,7,4.0,6.0,37,0.00,,,0.00,0.000000,,2013-04-11 06:22:00,
2013-04-10 23:32:00,33.0,10.0,-100.00,North,7,4.0,6.0,37,0.00,,,0.00,0.000000,,2013-04-11 06:32:00,